Weather History for KOAK - June, 2013

Change the Weather History Date:

Sunday, June 23, 2013

  Actual Average Record
Temperature  
Mean Temperature 62 °F 63 °F  
Max Temperature 68 °F 71 °F 93 °F (1957)
Min Temperature 56 °F 55 °F 48 °F (1955)
Degree Days  
Heating Degree Days 3 3  
Month to date heating degree days 55 85  
Since 1 June heating degree days 55 85  
Since 1 July heating degree days 2426 2855  
Cooling Degree Days 0 1  
Month to date cooling degree days 5 12  
Year to date cooling degree days 46 28  
Since 1 June cooling degree days 5 12  
Growing Degree Days 10 (Base 50)    
Moisture  
Dew Point 61 °F    
Average Humidity 97    
Maximum Humidity 100    
Minimum Humidity 93    
Precipitation  
Precipitation T in 0.00 in 0.00 in (2015)
Month to date precipitation T 0.17  
Year to date precipitation 2.65 13.21  
Since 1 July precipitation 13.64  
Sea Level Pressure  
Sea Level Pressure 29.87 in    
Wind  
Wind Speed 9 mph (West)    
Max Wind Speed 18 mph    
Max Gust Speed 24 mph    
Visibility 9 miles    
Events      
T = Trace of Precipitation, MM = Missing Value Source: NWS Daily Summary

Daily Weather History Graph

Daily Weather History Graph

Search for Another Location

Airport or City:

Trip Planner

Search our weather history database for the weather conditions in past years. The results will help you decide how hot, cold, wet, or windy it might be!

Date:

Astronomy

Jun. 23, 2013 Rise Set
Actual Time 5:48 AM PDT 8:34 PM PDT
Civil Twilight 5:16 AM PDT 9:05 PM PDT
Nautical Twilight 4:37 AM PDT 9:44 PM PDT
Astronomical Twilight 3:53 AM PDT 10:29 PM PDT
Moon 8:53 PM PDT (6/23) 6:10 AM PDT (6/23)
Length of Visible Light 15h 49m
Length of Day
14h 46m
Full, 100% of the Moon is Illuminated
Jun 23
Full
Jun 29
Last Quarter
Jul 8
New
Jul 15
First Quarter
Jul 22
Full

Hourly Weather History & Observations

Time (PDT) Temp. Dew Point Humidity Pressure Visibility Wind Dir Wind Speed Gust Speed Precip Events Conditions
12:53 AM 57.0 °F 57.0 °F 100% 29.89 in 5.0 mi West 13.8 mph - N/A   Overcast
1:53 AM 55.9 °F 55.9 °F 100% 29.89 in 6.0 mi West 9.2 mph - N/A   Overcast
2:53 AM 57.0 °F 57.0 °F 100% 29.89 in 6.0 mi West 11.5 mph - N/A   Overcast
3:53 AM 57.0 °F 57.0 °F 100% 29.88 in 6.0 mi West 10.4 mph - N/A   Overcast
4:53 AM 57.9 °F 57.9 °F 100% 29.87 in 7.0 mi West 18.4 mph - N/A   Overcast
5:53 AM 57.9 °F 57.9 °F 100% 29.87 in 5.0 mi West 15.0 mph - N/A   Overcast
6:53 AM 57.9 °F 57.9 °F 100% 29.88 in 6.0 mi West 11.5 mph - N/A   Overcast
7:53 AM 59.0 °F 59.0 °F 100% 29.88 in 8.0 mi West 11.5 mph - N/A   Overcast
8:38 AM 60.8 °F 60.8 °F 100% 29.89 in 8.0 mi West 16.1 mph - N/A   Overcast
8:53 AM 61.0 °F 61.0 °F 100% 29.89 in 8.0 mi West 11.5 mph - N/A   Overcast
9:24 AM 59.0 °F 59.0 °F 100% 29.91 in 10.0 mi WSW 12.7 mph - N/A   Overcast
9:53 AM 59.0 °F 59.0 °F 100% 29.91 in 8.0 mi WSW 10.4 mph - N/A   Overcast
10:42 AM 60.8 °F 60.8 °F 100% 29.90 in 10.0 mi SSW 10.4 mph - N/A   Overcast
10:53 AM 60.1 °F 60.1 °F 100% 29.90 in 10.0 mi SW 8.1 mph - N/A   Overcast
11:53 AM 63.0 °F 63.0 °F 100% 29.90 in 10.0 mi WSW 11.5 mph - N/A   Overcast
12:14 PM 62.6 °F 62.6 °F 100% 29.90 in 3.0 mi WSW 6.9 mph - 0.00 in   Drizzle
12:45 PM 62.6 °F 62.6 °F 100% 29.90 in 5.0 mi Calm Calm - 0.00 in   Overcast
12:53 PM 62.1 °F 62.1 °F 100% 29.90 in 7.0 mi Calm Calm - 0.00 in   Overcast
1:17 PM 62.6 °F 62.6 °F 100% 29.89 in 10.0 mi Calm Calm - N/A   Overcast
1:53 PM 63.0 °F 63.0 °F 100% 29.88 in 10.0 mi Calm Calm - N/A   Overcast
2:35 PM 64.4 °F 64.4 °F 100% 29.88 in 10.0 mi WSW 3.5 mph - 0.00 in   Overcast
2:53 PM 64.9 °F 64.0 °F 97% 29.88 in 10.0 mi West 6.9 mph - 0.00 in   Overcast
3:18 PM 64.4 °F 64.4 °F 100% 29.87 in 10.0 mi Calm Calm - N/A   Overcast
3:53 PM 66.9 °F 66.0 °F 97% 29.86 in 10.0 mi West 12.7 mph - N/A   Mostly Cloudy
4:10 PM 66.2 °F 64.4 °F 94% 29.86 in 10.0 mi West 12.7 mph - N/A   Mostly Cloudy
4:53 PM 66.0 °F 64.9 °F 96% 29.86 in 10.0 mi West 12.7 mph - N/A   Mostly Cloudy
5:19 PM 64.4 °F 64.4 °F 100% 29.86 in 10.0 mi West 12.7 mph - N/A   Mostly Cloudy
5:53 PM 64.0 °F 64.0 °F 100% 29.86 in 10.0 mi West 11.5 mph - N/A   Overcast
6:39 PM 62.6 °F 62.6 °F 100% 29.85 in 10.0 mi West 9.2 mph - N/A   Mostly Cloudy
6:53 PM 63.0 °F 63.0 °F 100% 29.86 in 10.0 mi West 9.2 mph - N/A   Mostly Cloudy
7:08 PM 62.6 °F 62.6 °F 100% 29.85 in 10.0 mi West 8.1 mph - N/A   Mostly Cloudy
7:53 PM 62.1 °F 62.1 °F 100% 29.85 in 10.0 mi WSW 4.6 mph - N/A   Mostly Cloudy
8:53 PM 62.1 °F 62.1 °F 100% 29.83 in 10.0 mi West 5.8 mph - N/A   Mostly Cloudy
9:53 PM 61.0 °F 61.0 °F 100% 29.84 in 10.0 mi NW 4.6 mph - N/A   Mostly Cloudy
10:53 PM 60.1 °F 60.1 °F 100% 29.84 in 10.0 mi WNW 8.1 mph - N/A   Overcast
11:20 PM 60.8 °F 60.8 °F 100% 29.84 in 10.0 mi NNW 3.5 mph - N/A   Overcast
11:53 PM 60.1 °F 60.1 °F 100% 29.83 in 10.0 mi North 3.5 mph - N/A   Overcast